Powrót do katalogu

DELTA 1 DEB

AktywnySSO
NORAD 12204·DEBRIS·🇺🇸 United States

Wystrzelony Mar 5, 1978 z Vandenberg Space Force Base

Loading…

Następne Przeloty (najbliższe 24 godziny)

TLE

ŚwieżeSource: Space-Track

Epoka: Sep 14, 2026, 13:31 UTC

1 12204U 78026AV  26257.56344757  .00000247  00000-0  10752-3 0  9996
2 12204  98.7425 282.3073 0077657 317.8948  41.6284 14.31018034370430

Śledź DELTA 1 DEB w czasie rzeczywistym z AllMySat

Download on the App Store